Location: Appikatla
(16.4123°N, 80.9187°E)
Time: 04:52:18
(UTC+00:00)

Daily predictions for brighter satellites

Satellite Brightness Start Highest point End
(mag) Time Altitude Azimuth Time Altitude Azimuth Time Altitude Azimuth
Cosmos 1892 Rocket 4.2 00:00:39 10° SSW 00:04:32 33° W 00:08:26 10° NNW
Stardust Del rocket 3.0 00:04:31 10° W 00:07:18 75° NNW 00:12:18 10° ENE
Cosmos 2058 Rocket 4.2 00:03:56 10° N 00:08:16 49° E 00:12:32 10° SSE
Spot 2 4.3 00:04:19 10° N 00:09:03 78° WNW 00:14:02 10° SSW
Meteor PRIRODA 4.4 00:06:36 10° NNW 00:09:50 30° WNW 00:13:05 10° SW
Orbus 7S 4.4 00:09:16 10° WNW 00:14:20 43° NNE 00:16:54 10° E
H-II Stage 2 3.7 00:11:14 10° SW 00:16:51 27° SSE 00:19:13 10° ESE
